TimeCDT,TemperatureF,Dew PointF,Humidity,Sea Level PressureIn,VisibilityMPH,Wind Direction,Wind SpeedMPH,Gust SpeedMPH,PrecipitationIn,Events,Conditions,WindDirDegrees,DateUTC
12:15 AM,28.4,28.4,100,29.82,0.2,NNW,5.8,-,N/A,Fog,Light Freezing Fog,330,2013-03-17 05:15:00
12:35 AM,26.6,26.6,100,29.82,0.2,North,4.6,-,N/A,Fog,Light Freezing Fog,10,2013-03-17 05:35:00
12:55 AM,28.4,28.4,100,29.81,0.2,Calm,Calm,-,N/A,Fog,Light Freezing Fog,0,2013-03-17 05:55:00
1:15 AM,28.4,28.4,100,29.79,0.2,ENE,3.5,-,N/A,Fog,Light Freezing Fog,60,2013-03-17 06:15:00
1:35 AM,28.4,28.4,100,29.78,0.2,Calm,Calm,-,N/A,Fog,Light Freezing Fog,0,2013-03-17 06:35:00
1:55 AM,26.6,26.6,100,29.77,0.2,NE,3.5,-,N/A,Fog,Light Freezing Fog,50,2013-03-17 06:55:00
2:15 AM,26.6,26.6,100,29.76,0.2,Calm,Calm,-,N/A,Fog,Light Freezing Fog,0,2013-03-17 07:15:00
2:35 AM,26.6,26.6,100,29.75,0.2,WNW,3.5,-,N/A,Fog,Light Freezing Fog,300,2013-03-17 07:35:00
2:55 AM,26.6,26.6,100,29.74,0.2,Calm,Calm,-,N/A,Fog,Light Freezing Fog,0,2013-03-17 07:55:00
3:15 AM,26.6,24.8,93,29.73,0.2,Calm,Calm,-,N/A,Fog,Light Freezing Fog,0,2013-03-17 08:15:00
3:35 AM,26.6,24.8,93,29.72,0.2,Calm,Calm,-,N/A,Fog,Light Freezing Fog,0,2013-03-17 08:35:00
3:55 AM,26.6,26.6,100,29.70,0.2,Calm,Calm,-,N/A,Fog,Light Freezing Fog,0,2013-03-17 08:55:00
4:15 AM,26.6,24.8,93,29.70,0.2,SW,4.6,-,N/A,Fog,Light Freezing Fog,230,2013-03-17 09:15:00
4:35 AM,26.6,24.8,93,29.69,0.2,West,5.8,-,N/A,Fog,Light Freezing Fog,260,2013-03-17 09:35:00
4:55 AM,26.6,24.8,93,29.67,0.2,SW,3.5,-,N/A,Fog,Light Freezing Fog,230,2013-03-17 09:55:00
5:15 AM,24.8,24.8,100,29.66,0.2,Calm,Calm,-,N/A,Fog,Light Freezing Fog,0,2013-03-17 10:15:00
5:35 AM,24.8,23.0,93,29.63,0.8,SSE,4.6,-,N/A,,Overcast,160,2013-03-17 10:35:00
5:55 AM,23.0,23.0,100,29.62,0.2,ESE,5.8,-,N/A,Fog,Light Freezing Fog,120,2013-03-17 10:55:00
6:15 AM,24.8,23.0,93,29.60,1.8,ESE,4.6,-,N/A,,Overcast,110,2013-03-17 11:15:00
6:35 AM,23.0,23.0,100,29.59,3.0,SE,3.5,-,N/A,,Mostly Cloudy,140,2013-03-17 11:35:00
6:55 AM,23.0,23.0,100,29.57,8.0,Calm,Calm,-,N/A,,Mostly Cloudy,0,2013-03-17 11:55:00
7:15 AM,24.8,23.0,93,29.54,0.5,East,3.5,-,N/A,Fog,Light Freezing Fog,90,2013-03-17 12:15:00
7:35 AM,24.8,23.0,93,29.52,3.0,Calm,Calm,-,N/A,,Partly Cloudy,0,2013-03-17 12:35:00
7:55 AM,24.8,23.0,93,29.50,4.0,NW,4.6,-,N/A,,Partly Cloudy,320,2013-03-17 12:55:00
8:15 AM,24.8,23.0,93,29.49,0.2,West,9.2,-,N/A,Fog,Light Freezing Fog,280,2013-03-17 13:15:00
8:35 AM,24.8,23.0,93,29.48,0.2,NW,6.9,-,N/A,Fog,Light Freezing Fog,310,2013-03-17 13:35:00
8:55 AM,24.8,24.8,100,29.48,0.2,WNW,6.9,-,N/A,Fog,Light Freezing Fog,300,2013-03-17 13:55:00
9:15 AM,24.8,23.0,93,29.47,0.2,NW,8.1,-,N/A,Fog,Light Freezing Fog,310,2013-03-17 14:15:00
9:35 AM,24.8,24.8,100,29.45,0.2,Calm,Calm,-,N/A,Fog,Light Freezing Fog,0,2013-03-17 14:35:00
9:55 AM,26.6,26.6,100,29.43,0.2,ESE,4.6,-,N/A,Fog,Light Freezing Fog,110,2013-03-17 14:55:00
10:15 AM,26.6,26.6,100,29.42,0.5,Calm,Calm,-,N/A,Fog,Light Freezing Fog,0,2013-03-17 15:15:00
10:35 AM,28.4,28.4,100,29.40,5.0,Calm,Calm,-,N/A,,Clear,0,2013-03-17 15:35:00
10:55 AM,32.0,32.0,100,29.38,8.0,Calm,Calm,-,N/A,,Clear,0,2013-03-17 15:55:00
11:15 AM,37.4,37.4,100,29.36,10.0,West,9.2,24.2,N/A,,Clear,270,2013-03-17 16:15:00
11:35 AM,48.2,28.4,46,29.34,10.0,WSW,26.5,35.7,N/A,,Clear,240,2013-03-17 16:35:00
11:55 AM,50.0,24.8,37,29.33,10.0,WSW,17.3,33.4,N/A,,Clear,240,2013-03-17 16:55:00
12:15 PM,46.4,26.6,46,29.34,10.0,WNW,9.2,-,N/A,,Clear,300,2013-03-17 17:15:00
12:35 PM,50.0,24.8,37,29.34,10.0,West,19.6,33.4,N/A,,Clear,260,2013-03-17 17:35:00
12:55 PM,51.8,26.6,38,29.34,10.0,West,21.9,26.5,N/A,,Clear,260,2013-03-17 17:55:00
1:15 PM,53.6,24.8,33,29.33,10.0,West,21.9,34.5,N/A,,Clear,260,2013-03-17 18:15:00
1:35 PM,51.8,24.8,35,29.35,10.0,West,23.0,34.5,N/A,,Clear,280,2013-03-17 18:35:00
1:55 PM,53.6,24.8,33,29.35,10.0,West,19.6,27.6,N/A,,Scattered Clouds,270,2013-03-17 18:55:00
2:15 PM,50.0,26.6,40,29.35,10.0,West,21.9,31.1,N/A,,Mostly Cloudy,280,2013-03-17 19:15:00
2:35 PM,48.2,26.6,43,29.35,10.0,WNW,25.3,33.4,N/A,,Mostly Cloudy,290,2013-03-17 19:35:00
2:55 PM,46.4,28.4,50,29.35,10.0,West,24.2,31.1,N/A,,Mostly Cloudy,280,2013-03-17 19:55:00
3:15 PM,44.6,30.2,57,29.37,10.0,WNW,24.2,34.5,N/A,,Mostly Cloudy,290,2013-03-17 20:15:00
3:35 PM,37.4,32.0,81,29.41,3.0,WNW,28.8,46.0,0.05,Rain,Light Rain,290,2013-03-17 20:35:00
3:55 PM,35.6,32.0,87,29.43,7.0,WNW,20.7,33.4,0.07,Rain,Light Rain,300,2013-03-17 20:55:00
4:15 PM,35.6,32.0,87,29.44,7.0,WNW,16.1,32.2,0.01,Rain,Light Rain,290,2013-03-17 21:15:00
4:35 PM,35.6,32.0,87,29.45,5.0,WNW,18.4,34.5,0.03,Rain,Light Rain,290,2013-03-17 21:35:00
4:55 PM,35.6,32.0,87,29.45,5.0,WNW,20.7,28.8,0.04,Rain,Light Rain,300,2013-03-17 21:55:00
5:15 PM,32.0,30.2,93,29.49,1.0,NW,27.6,43.7,0.17,Snow,Light Snow,310,2013-03-17 22:15:00
5:35 PM,32.0,28.4,87,29.52,3.0,WNW,27.6,39.1,0.19,Snow,Light Snow,300,2013-03-17 22:35:00
5:55 PM,32.0,26.6,80,29.54,5.0,NW,27.6,42.6,0.23,,Scattered Clouds,310,2013-03-17 22:55:00
6:15 PM,30.2,28.4,93,29.55,0.5,WNW,17.3,31.1,0.13,,Mostly Cloudy,290,2013-03-17 23:15:00
6:35 PM,30.2,28.4,93,29.58,0.2,WNW,24.2,34.5,0.37,,Overcast,300,2013-03-17 23:35:00
6:55 PM,28.4,26.6,93,29.60,0.5,NW,28.8,38.0,0.78,Snow,Snow,310,2013-03-17 23:55:00
7:15 PM,28.4,24.8,86,29.62,1.0,NW,31.1,41.4,0.13,,Mostly Cloudy,310,2013-03-18 00:15:00
7:35 PM,26.6,24.8,93,29.63,7.0,NW,27.6,38.0,0.16,Snow,Light Snow,310,2013-03-18 00:35:00
7:55 PM,28.4,23.0,80,29.65,10.0,NW,25.3,41.4,0.17,Snow,Light Snow,310,2013-03-18 00:55:00
8:15 PM,28.4,23.0,80,29.67,10.0,WNW,24.2,35.7,N/A,,Overcast,300,2013-03-18 01:15:00
8:35 PM,28.4,21.2,74,29.68,10.0,WNW,21.9,40.3,N/A,Snow,Light Snow,300,2013-03-18 01:35:00
8:55 PM,26.6,21.2,80,29.68,10.0,WNW,26.5,35.7,N/A,,Overcast,300,2013-03-18 01:55:00
9:15 PM,26.6,21.2,80,29.69,10.0,WNW,25.3,35.7,N/A,,Overcast,300,2013-03-18 02:15:00
9:35 PM,26.6,19.4,74,29.69,10.0,WNW,24.2,34.5,N/A,,Overcast,290,2013-03-18 02:35:00
9:55 PM,26.6,19.4,74,29.70,10.0,WNW,25.3,34.5,N/A,,Overcast,300,2013-03-18 02:55:00
10:15 PM,24.8,17.6,74,29.70,10.0,WNW,28.8,35.7,N/A,,Overcast,290,2013-03-18 03:15:00
10:35 PM,24.8,17.6,74,29.71,10.0,WNW,26.5,36.8,N/A,,Overcast,300,2013-03-18 03:35:00
10:55 PM,23.0,15.8,74,29.72,10.0,WNW,26.5,35.7,N/A,,Overcast,290,2013-03-18 03:55:00
11:15 PM,23.0,15.8,74,29.72,10.0,WNW,24.2,36.8,N/A,,Overcast,300,2013-03-18 04:15:00
11:35 PM,23.0,15.8,74,29.72,10.0,West,24.2,34.5,N/A,,Overcast,280,2013-03-18 04:35:00
11:55 PM,23.0,15.8,74,29.72,10.0,WNW,24.2,35.7,N/A,,Mostly Cloudy,290,2013-03-18 04:55:00